Location: Sedan
(39.2354°N, 78.5718°W)
Time: 21:10:32
(UTC+00:00)

ISS - Pass Details

Date: 02 December 2021
Orbit: 413 x 422 km, 51.6° (Epoch: 25 January)

Event Time Altitude Azimuth Distance (km) Brightness Sun altitude
Rises 22:59:43 0° 315° (NW) 2,385 0.5 -13.0°
Reaches altitude 10° 23:02:31 10° 340° (NNW) 1,515 -0.9 -13.5°
Maximum altitude 23:04:35 15° 18° (NNE) 1,237 -1.7 -13.9°
Enters shadow 23:04:48 15° 22° (NNE) 1,241 -1.7 -13.9°
